Overview Statistics Trail Chart Weather Telemetry Raw packets
 

This is the latest recevied weather packets stored in our database for station/object R8AHC-W5. If no packets are shown the sender has not sent any weather packets the latest 10 day(s).

<< 1 2 3 4 5 >>
Time Temp. Humidity Pressure Rain* Wind** Luminosity Snow
1778108101 13.33° C 89% 1011 hPa - 0.89 m/s, 318° - -
1778104502 13.33° C 87% 1010 hPa - 0.45 m/s, 5° - -
1778100901 13.89° C 86% 1010 hPa - 0.89 m/s, 168° - -
1778097302 13.89° C 82% 1011 hPa - 2.24 m/s, 155° - -
1778093702 14.44° C 77% 1011 hPa - 2.24 m/s, 145° - -
1778090103 14.44° C 70% 1012 hPa - 2.68 m/s, 136° - -
1778086502 15° C 67% 1013 hPa - 3.13 m/s, 136° - -
1778082902 15.56° C 65% 1013 hPa - 2.68 m/s, 131° - -
1778079302 16.67° C 63% 1013 hPa - 2.68 m/s, 136° - -
1778075702 18.89° C 56% 1013 hPa - 3.13 m/s, 150° - -
1778072102 20° C 50% 1014 hPa - 4.02 m/s, 155° - -
1778068502 20.56° C 44% 1014 hPa - 4.47 m/s, 154° - -
1778064902 20.56° C 44% 1014 hPa - 4.02 m/s, 155° - -
1778061302 20.56° C 43% 1014 hPa - 3.13 m/s, 151° - -
1778057702 20° C 44% 1014 hPa - 3.13 m/s, 167° - -
1778054102 19.44° C 46% 1015 hPa - 3.13 m/s, 181° - -
1778050502 18.89° C 49% 1015 hPa - 4.02 m/s, 188° - -
1778046902 17.78° C 54% 1015 hPa - 3.58 m/s, 192° - -
1778043302 16.67° C 59% 1015 hPa - 3.13 m/s, 197° - -
1778039701 15.56° C 64% 1015 hPa - 3.13 m/s, 204° - -
1778036101 13.89° C 70% 1016 hPa - 2.24 m/s, 225° - -
1778032503 11.67° C 79% 1015 hPa - 2.24 m/s, 224° - -
1778028903 10.56° C 82% 1015 hPa - 3.13 m/s, 226° - -
1778025301 10° C 82% 1016 hPa - 3.58 m/s, 222° - -
1778021701 10.56° C 82% 1016 hPa - 3.58 m/s, 228° - -

* Rain since midnight (hover to see other rain measurements)
** Current wind speed in m/s (hover to see current wind gust speed)